Location: Unspecified
(41.5000°N, 0.0000°E)
Time: 19:33:09
(UTC+00:00)

Vanguard 2 - Pass Details

Date: 23 June 2019
Orbit: 553 x 2938 km, 32.9° (Epoch: 21 July)

Event Time Altitude Azimuth Distance (km) Brightness Sun altitude
Rises 10:15:58 0° 258° (WSW) 3,473 10.7 61.4°
Reaches altitude 10° 10:18:10 10° 252° (WSW) 2,749 10.3 61.8°
Maximum altitude 10:24:36 47° 180° (S) 1,750 10.4 62.8°
Drops below altitude 10° 10:35:09 10° 112° (ESE) 4,451 12.0 64.4°
Sets 10:39:43 0° 108° (ESE) 5,834 12.4 65.0°
